sat.trackr.live / text

‹ back to catalog

STARLINK-36723

NORAD 67915 · 2026-036M

PAYLOAD ACTIVE UNKNOWN

§ Identity

Operator
Country
US
Launch date
2026-02-22
Launch site
AFETR
Launch vehicle
Mass (kg)
RCS (m²)

Purposes: comms

External: N2YO · Heavens-Above · Gunter

§ Orbital elements

Epoch: 2026-05-25T03:03:17.672832Z

Period
94.27 min
Inclination
42.9982°
Eccentricity
0.0000573
Mean motion
15.27594858 rev/d
Perigee alt
482.6 km
Apogee alt
483.4 km
Semi-major
6,861.1 km
B*
4.9072e-4
RAAN
173.4513°
Arg perigee
290.6311°
Mean anomaly
69.4479°
Rev number
1,541

§ Raw data

STARLINK-367231 67915U 26036M   26145.12728788  .00013272  00000+0  49072-3 0  99952 67915  42.9982 173.4513 0000573 290.6311  69.4479 15.27594858 15419

JSON: /api/v1/satellites/67915 · /tle

For live sub-satellite position, see the globe view (requires WebGL).

§ Visibility from observer

Set your observer location to see the next 7 days of passes ≥ 10°. The values pass through the URL so the page stays shareable.

No JS? Fill the form by hand. The geolocation button needs JavaScript.